Regional Weather Roundup
Issued by NWS Newport/Morehead, NC

Current Version | Previous Version | Graphics & Text | Print | Product List | Glossary Off
Versions: 1 2 3 4 5 6 7 8 9 10 11 12 13 14 15 16 17 18 19 20 21 22 23 24 25 26 27 28 29 30 31 32 33 34 35 36 37 38 39 40 41 42 43 44 45 46 47 48 49 50

545
ASUS42 KMHX 230213
RWRMHX
WEATHER ROUNDUP FOR EASTERN NORTH CAROLINA
NATIONAL WEATHER SERVICE NEWPORT/MOREHEAD CITY NC
1000 PM EDT MON MAY 22 2017

NOTE: "FAIR" INDICATES FEW OR NO CLOUDS BELOW 12,000 FEET
WITH NO SIGNIFICANT WEATHER AND/OR OBSTRUCTIONS TO VISIBILITY

NCZ015>017-031-032-045>047-102-103-230300-
NORTH COAST

CITY           SKY/WX    TMP DP  RH WIND       PRES   REMARKS
EDENTON        CLOUDY    73  67  79 CALM      29.99R
ELIZABETH CITY CLOUDY    71  70  96 SW6       29.97R
KITTY HAWK     NOT AVBL
MANTEO         CLOUDY    70  67  89 SW13      29.99R

$$

NCZ045>047-081-094-103-104-230300-
CENTRAL COAST

CITY           SKY/WX    TMP DP  RH WIND       PRES   REMARKS
FRISCO         LGT RAIN  68  65  90 W9        30.01F

$$

NCZ095-097-098-100-101-230300-
SOUTHERN COAST

CITY           SKY/WX    TMP DP  RH WIND       PRES   REMARKS
BEAUFORT       CLOUDY    77  72  84 SW13      30.00R
CEDAR ISLAND   NOT AVBL
JACKSONVILLE   LGT RAIN  69  68  96 W8        30.00R
PINEY ISLAND   LGT RAIN N/A N/A N/A SE3       29.99S
WILMINGTON     RAIN      67  66  97 SW7       30.01R FOG


$$

NCZ011>013-027>030-043-044-078>080-089-090>093-098-230300-
COASTAL PLAIN

CITY           SKY/WX    TMP DP  RH WIND       PRES   REMARKS
AHOSKIE          N/A     67  66  98 CALM      29.98S
CLINTON        LGT RAIN  68  68 100 CALM      30.01R
ELIZABETHTOWN  LGT RAIN  68  68 100 CALM      30.00F
GOLDSBORO      CLOUDY    73  71  95 S10       29.98R
GREENVILLE     CLOUDY    75  68  78 SE3       30.00S
HAVELOCK       NOT AVBL
KENANSVILLE    RAIN      66  66 100 SW3       30.00R FOG
KINSTON        CLOUDY    72  66  83 S7        30.00R
NEW BERN       LGT RAIN  69  68  96 CALM      30.00F
RICHLANDS      LGT RAIN  68  67  96 SW3       30.01R
ROCKY MOUNT    CLOUDY    70  70 100 CALM      29.98S
WASHINGTON     CLOUDY    72  66  80 SW3       29.99R
WHITEVILLE     LGT RAIN  67  66  96 CALM      29.99F

$$

AMZ130-135-150-152-154-156-158-170-250-252-270-ANZ085-086-088-633-658-670-230300-
MARINE OBSERVATIONS

STATION/POSITION TIME  TEMP    WIND        PRES    WAVE   SWELL
                       AIR SEA DIR/SP/G            HT/PER HT/PER
                 (UTC) (F)     (DEG/KT/KT) (MB)    (FT/S) (FT/S)
CHESAPEAKE LIGHT NOT AVBL
64 E VA BEACH    0150   68 69  220/ 16/ 17 1014.2    3/ 8   2/ 8
DUCK             0148   72 65  200/  8/ 11 1014.5
2 E DUCK         0200      66                N/A     3/ 8
OREGON INLET     0148          190/ 12/ 14 1015.0
13E OREGON INLT  0118      66                N/A     3/ 8   2/ 8
HATTERAS CG      0148   67 75  200/  5/  8 1016.1
DIAMOND BUOY     0150   72 78  290/ 16/ 17 1016.8    4/ 9   3/ 9
CAPE LOOKOUT     0200   76     210/  8/ 10 1015.5
BEAUFORT LAB     0148   76 74  210/  8/ 11 1014.9
30 SE NEW RVR IN 0108   76 76  230/ 14/ 17 1015.7
30 SE NEW RVR IN 0143      76                N/A     4/ 5
27 SE WRIGHTSVLE 0108   76 76  190/ 12/ 16 1015.0
5 SE WRIGHTSVLE  0108   68 75  300/  4/  8 1016.5
225 S CAPE HAT   0150   76 77  190/ 10/ 14 1018.6    3/ 8   3/ 8
41 SE CHARLESTON 0200   78 78  170/ 10/ 12 1014.8

$$




USA.gov is the U.S. government's official web portal to all federal, state and local government web resources and services.